Hourly Weather Roundup
Issued by NWS Central Illinois

Home | Current Version | Previous Version | Text Only | Print | Product List | Glossary On
Versions: 1 2 3 4 5 6 7 8 9 10 11 12 13 14 15 16 17 18 19 20 21 22 23 24 25 26 27 28 29 30 31 32 33 34 35 36 37 38 39 40 41 42 43 44 45 46 47 48 49 50
000
NZUS43 KILX 141210
HWRILX

AREA WEATHER ROUNDUP
NATIONAL WEATHER SERVICE, LINCOLN IL
700 AM CDT MON JUL 14 2014


CITY           SKY/WX    TMP DP  RH WIND       PRES   REMARKS
BLOOMINGTON    MOSUNNY   67  65  93 S3        29.92S
CHAMPAIGN      PTSUNNY   69  68  96 CALM      29.91R FOG
6HR MIN TEMP:  67; 6HR MAX TEMP:  71;

DECATUR        PTSUNNY   70  67  90 SW3       29.91S
6HR MIN TEMP:  67; 6HR MAX TEMP:  72;

EFFINGHAM      FOG       73  69  90 CALM      29.92R VSB 1/4
FLORA          CLOUDY    72  72  98 CALM      29.92S FOG
6HR MIN TEMP:  71; 6HR MAX TEMP:  73; 6HR PCP:  0.70;

GALESBURG      SUNNY     67  66  99 CALM      29.89S
JACKSONVILLE   SUNNY     72  71  98 SW3       29.91S
6HR MIN TEMP:  68; 6HR MAX TEMP:  72;

LACON          MOSUNNY   67  64  92 CALM      29.87F
6HR MIN TEMP:  63; 6HR MAX TEMP:  68;

LAWRENCEVILLE  CLOUDY    70  50  49 CALM        N/A
6HR MIN TEMP:  69; 6HR MAX TEMP:  75; 6HR PCP:  2.07;

LITCHFIELD     FOG       69  69 100 CALM      29.92S VSB<1/4
$$


CITY           SKY/WX    TMP DP  RH WIND       PRES   REMARKS
LINCOLN        MOSUNNY   68  66  94 CALM      29.88R
6HR MIN TEMP:  65; 6HR MAX TEMP:  69;

MACOMB         SUNNY     67  67 100 W5        29.91R
MATTOON        CLOUDY    70  68  93 CALM      29.91R
6HR MIN TEMP:  68; 6HR MAX TEMP:  74;

MT CARMEL AP   LGT RAIN  72  70  94 CALM      29.93S
OLNEY-NOBLE AP CLOUDY    70  70 100 CALM      29.92F
PARIS          CLOUDY    67  67 100 CALM      29.92R FOG
6HR MIN TEMP:  66; 6HR MAX TEMP:  70;

PEORIA         SUNNY     71  67  87 CALM      29.88F
6HR MIN TEMP:  67; 6HR MAX TEMP:  71;

PONTIAC        SUNNY     66  66 100 CALM      29.88S
RANTOUL        PTSUNNY   67  64  90 CALM      29.91S
6HR MIN TEMP:  65; 6HR MAX TEMP:  73;

ROBINSON       CLOUDY    72  71  95 CALM      29.93S
6HR MIN TEMP:  72; 6HR MAX TEMP:  76; 6HR PCP:  1.15;

SPRINGFIELD    SUNNY     70  69  97 CALM      29.90S
6HR MIN TEMP:  67; 6HR MAX TEMP:  70;

TAYLORVILLE    FOG       68  68 100 CALM      29.92R VSB<1/4
$$

...REGIONAL REPORTS...


CITY           SKY/WX    TMP DP  RH WIND       PRES   REMARKS
CHICAGO O`HARE PTSUNNY   67  57  70 CALM      29.86S
KANKAKEE       SUNNY     66  66  99 CALM      29.88F
MOLINE         MOSUNNY   68  64  87 CALM      29.87R
MOUNT VERNON   CLOUDY    72  66  83 S3        29.93S
PITTSFIELD     PTSUNNY   72  70  94 W3        29.92S FOG
QUINCY         SUNNY     71  68  90 W6        29.91S
ROCKFORD       PTSUNNY   61  57  87 CALM      29.90S
$$


CITY           SKY/WX    TMP DP  RH WIND       PRES   REMARKS
BURLINGTON     SUNNY     69  66  90 VRB5      29.90R
CEDAR RAPIDS   MOSUNNY   62  58  86 NW5       29.90R
DES MOINES     PTSUNNY   67  61  81 NW6       29.95R
KIRKSVILLE     SUNNY     70  68  93 W3        29.94R
OTTUMWA        MOSUNNY   67  65  93 NW6       29.91S
ST LOUIS       CLOUDY    75  72  90 W7        29.93R FOG
$$


CITY           SKY/WX    TMP DP  RH WIND       PRES   REMARKS
TERRE HAUTE    CLOUDY    71  69  93 SW8       29.92R
EVANSVILLE     CLOUDY    72  69  90 CALM      29.93F
INDIANAPOLIS   CLOUDY    70  70 100 SW7       29.91R FOG
LAFAYETTE      PTSUNNY   65  65 100 CALM      29.90R
MADISON        MOSUNNY   62  56  80 CALM      29.86F
MILWAUKEE      MOSUNNY   65  57  75 CALM      29.87R
$$





USA.gov is the U.S. government's official web portal to all federal, state and local government web resources and services.